Date String (YYYY-MM-DD hh:mm:ss) UTC,Instrument flags,absolute air pressure of the measurement (hPa),sample flow rate (lpm),inlet stack bypass flow (lpm),air temperature of the measurement (°C),ambient temperature measured by the external sensor (°C),aerosol sample conditioner tube jacket temperature (°C),OPC LED temperature (°C),internal box temperature (°C),relative humidity of the measurement (%),span deviation,mass concentration of particles derived from Lorenz-Mie calculation of OPC scattering (μg/m³),mass concentration of particles derived from Lorenz-Mie calculation of OPC scattering (μg/m³),mass concentration of particles derived from Lorenz-Mie calculation of OPC scattering (μg/m³)
DateTimeUTC,F1_M11,P_M11,Q1_M11,Q2_M11,T1_M11,T2_M11,T3_M11,T4_M11,T5_M11,U1_M11,ZSPAN_M11,X2_M11,X0_M11,X1_M11
2024-02-11 18:00:00,SystemResetWarning,0829.3,5.00,000.00,019.0,018.7,000.0,027.2,020.7,14.5,0000.0,0005.29,0007.70,0005.12
2024-02-11 18:01:00,SystemResetWarning,0829.4,5.00,000.00,019.0,018.7,000.0,027.2,020.7,14.6,0000.0,0005.25,0007.81,0005.08
2024-02-11 18:02:00,SystemResetWarning,0829.4,4.99,000.00,019.0,018.7,000.0,027.2,020.7,14.5,0000.0,0005.25,0008.33,0005.06
2024-02-11 18:03:00,SystemResetWarning,0829.3,5.00,000.00,019.1,018.7,000.0,027.2,020.7,14.4,0000.0,0005.26,0008.36,0005.07
2024-02-11 18:04:00,SystemResetWarning,0829.3,5.00,000.00,019.1,018.7,000.0,027.3,020.7,14.4,0000.0,0005.27,0008.36,0005.07
2024-02-11 18:05:00,SystemResetWarning,0829.3,5.00,000.00,019.1,018.8,000.0,027.3,020.8,14.2,0000.0,0005.25,0008.39,0005.06
2024-02-11 18:06:00,SystemResetWarning,0829.4,5.00,000.00,019.1,018.8,000.0,027.3,020.8,13.8,0000.0,0005.24,0008.24,0005.08
2024-02-11 18:07:00,SystemResetWarning,0829.3,5.00,000.00,019.1,018.8,000.0,027.3,020.8,14.1,0000.4,0005.26,0008.21,0005.10
2024-02-11 18:08:00,SystemResetWarning,0829.3,5.00,000.00,019.1,018.8,000.0,027.3,020.8,14.2,0002.1,0005.26,0008.22,0005.11
2024-02-11 18:09:00,SystemResetWarning,0829.3,4.99,000.00,019.1,018.8,000.0,027.3,020.8,14.3,0001.5,0005.26,0008.24,0005.10
2024-02-11 18:10:00,SystemResetWarning,0829.3,5.00,000.00,019.1,018.8,000.0,027.3,020.8,14.7,0001.8,0005.26,0008.26,0005.10
2024-02-11 18:11:00,SystemResetWarning,0829.3,4.99,000.00,019.1,018.8,000.0,027.3,020.8,14.8,0001.1,0005.27,0008.27,0005.11
2024-02-11 18:12:00,SystemResetWarning,0829.3,5.00,000.00,019.2,018.8,000.0,027.4,020.9,13.7,0001.1,0005.28,0007.93,0005.12
2024-02-11 18:13:00,SystemResetWarning,0829.4,5.00,000.00,019.2,018.8,000.0,027.4,020.9,12.4,0000.7,0005.28,0007.38,0005.13
2024-02-11 18:14:00,SystemResetWarning,0829.4,5.01,000.00,019.2,018.9,000.0,027.4,020.9,12.5,-000.2,0005.27,0007.50,0005.13
2024-02-11 18:15:00,SystemResetWarning,0829.4,5.00,000.00,019.2,018.9,000.0,027.4,020.9,13.2,-000.1,0005.27,0007.50,0005.12
2024-02-11 18:16:00,SystemResetWarning,0829.3,5.00,000.00,019.2,018.9,000.0,027.4,020.9,12.6,0000.3,0005.26,0007.45,0005.12
2024-02-11 18:17:00,SystemResetWarning,0829.3,4.99,000.00,019.2,018.9,000.0,027.4,020.9,11.5,0000.6,0005.22,0007.37,0005.08
2024-02-11 18:18:00,SystemResetWarning,0829.2,5.00,000.00,019.2,018.9,000.0,027.4,020.9,11.7,0000.3,0005.12,0007.26,0004.99
2024-02-11 18:19:00,SystemResetWarning,0829.2,5.00,000.00,019.2,018.9,000.0,027.4,021.0,11.6,0000.0,0005.04,0007.14,0004.90
2024-02-11 18:20:00,SystemResetWarning,0829.2,5.00,000.00,019.2,018.9,000.0,027.5,021.0,12.2,0000.0,0004.96,0006.99,0004.84
2024-02-11 18:21:00,SystemResetWarning,0829.2,5.00,000.00,019.2,018.9,000.0,027.5,021.0,12.7,0000.0,0004.90,0006.86,0004.78
2024-02-11 18:22:00,SystemResetWarning,0829.2,5.01,000.00,019.2,018.9,000.0,027.5,021.0,12.2,0000.0,0004.81,0006.66,0004.70
2024-02-11 18:23:00,SystemResetWarning,0829.2,5.01,000.00,019.2,018.9,000.0,027.5,021.0,12.0,0000.0,0004.73,0006.54,0004.62
2024-02-11 18:24:00,SystemResetWarning,0829.2,4.99,000.00,019.3,018.9,000.0,027.5,021.0,12.2,0000.0,0004.64,0006.41,0004.52
2024-02-11 18:25:00,SystemResetWarning,0829.2,5.00,000.00,019.3,018.9,000.0,027.5,021.0,12.5,0000.0,0004.52,0005.89,0004.41
2024-02-11 18:26:00,SystemResetWarning,0829.2,5.01,000.00,019.3,018.9,000.0,027.5,021.0,12.4,0000.0,0004.41,0005.67,0004.31
2024-02-11 18:27:00,SystemResetWarning,0829.2,5.01,000.00,019.3,018.9,000.0,027.5,021.0,11.8,0000.0,0004.30,0005.90,0004.20
2024-02-11 18:28:00,SystemResetWarning,0829.2,5.01,000.00,019.3,018.9,000.0,027.5,021.0,11.8,0000.0,0004.22,0005.94,0004.12
2024-02-11 18:29:00,SystemResetWarning,0829.1,4.98,000.00,019.3,018.9,000.0,027.6,021.1,11.9,0000.0,0004.19,0006.00,0004.09
2024-02-11 18:30:00,SystemResetWarning,0829.1,5.01,000.00,019.3,018.9,000.0,027.6,021.0,12.3,0000.0,0004.18,0006.01,0004.08
2024-02-11 18:31:00,SystemResetWarning,0829.1,5.01,000.00,019.3,018.9,000.0,027.6,021.0,13.0,0000.0,0004.15,0005.98,0004.05
2024-02-11 18:32:00,SystemResetWarning,0829.1,4.99,000.00,019.3,019.0,000.0,027.6,021.1,12.5,0000.0,0004.11,0005.90,0004.02
2024-02-11 18:33:00,SystemResetWarning,0829.1,4.99,000.00,019.3,019.0,000.0,027.6,021.1,12.6,0000.0,0004.12,0005.95,0004.01
2024-02-11 18:34:00,SystemResetWarning,0829.1,5.00,000.00,019.3,019.0,000.0,027.6,021.1,12.3,0000.0,0004.13,0005.94,0004.01
2024-02-11 18:35:00,SystemResetWarning,0829.1,5.01,000.00,019.3,019.0,000.0,027.6,021.1,12.3,0000.0,0004.14,0005.91,0004.03
2024-02-11 18:36:00,SystemResetWarning,0829.0,5.00,000.00,019.3,019.0,000.0,027.6,021.1,12.6,0000.0,0004.16,0005.95,0004.05
2024-02-11 18:37:00,SystemResetWarning,0829.0,5.00,000.00,019.3,019.0,000.0,027.6,021.1,13.3,0000.0,0004.18,0006.00,0004.07
2024-02-11 18:38:00,SystemResetWarning,0829.0,4.99,000.00,019.3,019.0,000.0,027.6,021.1,13.6,0000.0,0004.19,0005.67,0004.10
2024-02-11 18:39:00,SystemResetWarning,0829.0,5.00,000.00,019.3,019.0,000.0,027.6,021.1,12.8,0000.0,0004.21,0005.41,0004.12
2024-02-11 18:40:00,SystemResetWarning,0829.1,5.00,000.00,019.3,019.0,000.0,027.6,021.1,12.8,0000.0,0004.23,0005.37,0004.14
2024-02-11 18:41:00,SystemResetWarning,0829.0,5.02,000.00,019.3,018.9,000.0,027.6,021.1,12.6,0000.0,0004.26,0005.34,0004.17
2024-02-11 18:42:00,SystemResetWarning,0829.0,5.01,000.00,019.3,018.9,000.0,027.6,021.1,12.0,0000.0,0004.27,0005.36,0004.19
2024-02-11 18:43:00,SystemResetWarning,0829.0,5.00,000.00,019.3,018.9,000.0,027.6,021.1,12.1,0000.0,0004.30,0005.42,0004.22
2024-02-11 18:44:00,SystemResetWarning,0828.9,5.00,000.00,019.3,018.9,000.0,027.6,021.1,12.4,0000.0,0004.31,0005.43,0004.24
2024-02-11 18:45:00,SystemResetWarning,0828.9,4.99,000.00,019.3,018.9,000.0,027.7,021.1,12.9,0000.0,0004.34,0005.48,0004.26
2024-02-11 18:46:00,SystemResetWarning,0828.9,5.00,000.00,019.3,018.9,000.0,027.7,021.1,13.1,0000.0,0004.36,0005.53,0004.29
2024-02-11 18:47:00,SystemResetWarning,0828.9,5.00,000.00,019.3,018.9,000.0,027.7,021.1,12.9,0000.0,0004.37,0005.53,0004.29
2024-02-11 18:48:00,SystemResetWarning,0829.0,5.00,000.00,019.3,018.9,000.0,027.7,021.1,12.3,0000.0,0004.35,0005.48,0004.28
2024-02-11 18:49:00,SystemResetWarning,0828.9,5.00,000.00,019.3,018.9,000.0,027.7,021.1,12.3,0000.0,0004.35,0005.53,0004.27
2024-02-11 18:50:00,SystemResetWarning,0829.0,5.00,000.00,019.3,018.9,000.0,027.7,021.1,12.9,0000.0,0004.37,0005.58,0004.28
2024-02-11 18:51:00,SystemResetWarning,0829.0,5.00,000.00,019.3,018.9,000.0,027.7,021.1,13.0,0000.0,0004.37,0005.55,0004.29
2024-02-11 18:52:00,SystemResetWarning,0829.0,5.01,000.00,019.3,018.9,000.0,027.7,021.1,13.2,0000.0,0004.36,0005.66,0004.29
2024-02-11 18:53:00,SystemResetWarning,0829.0,5.00,000.00,019.3,018.9,000.0,027.7,021.1,14.0,0000.0,0004.33,0006.04,0004.26
2024-02-11 18:54:00,SystemResetWarning,0828.9,5.00,000.00,019.3,018.9,000.0,027.7,021.1,12.5,0000.0,0004.32,0006.07,0004.23
2024-02-11 18:55:00,SystemResetWarning,0828.9,5.01,000.00,019.3,018.9,000.0,027.7,021.1,12.5,0000.0,0004.32,0006.08,0004.24
2024-02-11 18:56:00,SystemResetWarning,0829.0,5.00,000.00,019.3,018.9,000.0,027.7,021.1,12.3,0000.0,0004.31,0006.05,0004.23
2024-02-11 18:57:00,SystemResetWarning,0828.9,5.00,000.00,019.3,018.9,000.0,027.7,021.1,12.6,0000.0,0004.29,0006.00,0004.20
2024-02-11 18:58:00,SystemResetWarning,0828.9,4.99,000.00,019.3,018.9,000.0,027.7,021.1,13.1,0000.0,0004.28,0006.02,0004.19
2024-02-11 18:59:00,SystemResetWarning,0828.8,5.00,000.00,019.3,018.9,000.0,027.7,021.1,12.9,0000.0,0004.29,0006.07,0004.20
